STARLINK-5796, 55916

Orbit data source: Space-Track

STARLINK-5796, 55916 is a payload satellite owned by SpaceX/Seattle (US) in LEO that was launched on Fri, 17 Mar 2023 UTC via an FALCON 9 launch vehicle from the Air Force Western Test Range (AFWTR). Payload-class satellites include a variety of spacecraft equipped with specific instruments for various scientific and technological missions. These include communications satellites like Starlink; space stations such as the ISS; scientific satellites like the Hubble; Earth observation satellites from companies like Planet Labs, Umbra, and HawkEye 360; GPS; miniature CubeSats for education and research; and military/defense satellites.

Loading next visibility...
Identifier
55916, 2023-037C
Orbit
LEO
Country
Flag of USUS
Related business
Manufacturer
SpaceX/Seattle
Mission
Operational Commercial Communications
Bus & Motor
STARLINK, Unknown motor
Mass
305 kg wet, ~290 kg dry
Launch date (UTC)
2023-03-17 (3 years ago)
Launch vehicle
FALCON 9
Launch site
Air Force Western Test Range (AFWTR)
Object type
Payload
Rocket body
Debris
Shape & HBR
Box + 1 Pan, 10.1 m
Radar Cross Section
11.087 m², Large (>1 m²)

Expand to show TLE details & history
Last TLE update: 7 hours ago

TLE from 7 hours ago
0 STARLINK-5796
1 55916U 23037C   25349.90321236  .00002983  00000-0  25779-3 0  9995
2 55916  69.9984 155.8374 0003246 261.8119  98.2672 14.98307851150937
Epoch: 2025-12-15T21:40Z
TLE epoch observation values (Epoch: 2025-12-15T21:40:37.547Z)
Latitude
-0.00004°
Longitude
105.88584°
Altitude
574.873 km
Speed
7.573 km/s
True Right ascension
10h 23m 20s
True Declination
0° 00' 00"
Sunlit
Object was in daylight at epoch
Visualization orbit readout
Latitude
Unknown
Longitude
Unknown
Altitude
Unknown
Speed
Unknown
Apparent Right ascension
Unknown
Apparent Declination
Unknown
Sunlit
N/A
Visualization observer readout
Local Sidereal Time
03:07:58
Azimuth
Unknown
Elevation
Unknown
Doppler factor
Unknown
Orbital elements
Apogee altitude
572.328 km
Perigee altitude
567.817 km
Semi-major axis
6,948.21 km
Eccentricity
0.00032
Inclination
69.9984°
RAAN
155.8374°
Arg. of periapsis
261.8119°
True anomaly
98.30401°
Mean anomaly
98.2672°
Eccentric anomaly
98.2856°
Mean motion
3.74743 °/min
Orbital period
96.07 mins
BSTAR
0.00025779
Loading maneuver chart data...
Computing Atmospheric mass density...
Loading historical data...
Loading historical data...
Loading historical data...
Loading historical data...
Loading historical data...
Loading historical data...
Loading historical data...

Documentation

Showing up to 5 results
|